Theta_e
332 330 329 328 326 325 324 323 320 317 311 308 303 299 298 297 296 296 295 295 294 293 293 292 292 292 291 291 290 290 289 288 287 287 287 286 285 284 282 281 281 281 279
330 329 329 327 324 323 321 320 317 314 309 306 303 299 297 296 296 295 295 294 294 293 292 292 292 291 290 290 290 290 288 287 286 285 286 286 285 284 283 281 281 280 279
326 326 325 324 321 319 318 317 314 311 307 304 302 299 297 296 296 295 295 294 293 293 292 292 292 291 290 290 290 289 288 286 286 285 285 284 284 283 282 282 281 280 279
322 322 320 320 317 317 315 313 311 307 305 303 301 298 297 296 295 295 294 293 293 292 292 291 291 291 290 290 290 289 287 286 285 284 284 283 283 283 282 281 280 279 278
318 317 316 317 314 313 311 309 308 306 305 304 300 297 296 295 295 294 294 293 292 292 291 291 291 290 290 290 290 289 287 286 285 284 283 282 282 282 281 281 280 279 278
316 315 314 312 311 310 309 307 306 305 303 301 299 296 295 295 295 294 294 293 292 292 292 291 291 290 290 290 290 288 287 286 284 283 283 282 283 282 282 281 280 278 276
312 312 311 311 309 308 307 305 304 303 301 299 297 295 295 295 294 294 293 292 293 292 292 291 290 289 289 289 288 286 285 284 283 284 283 283 282 282 281 280 279 278 277
309 309 309 308 307 306 304 303 302 301 299 298 296 295 294 294 294 293 293 293 292 292 291 290 290 290 290 289 287 286 286 285 284 284 284 283 282 280 279 278 278 277 276
306 307 307 307 306 304 302 302 301 299 298 297 296 294 293 293 293 293 292 292 291 291 291 290 290 289 289 288 286 285 286 286 285 284 283 282 281 279 278 277 276 275 274
305 304 305 305 304 303 303 301 300 299 299 297 295 294 293 293 293 293 292 292 291 292 291 290 289 289 289 287 285 285 284 286 285 284 282 281 281 279 278 277 276 274 273
303 304 304 304 304 304 303 301 300 299 297 296 294 293 293 293 293 293 292 292 292 292 291 291 290 289 288 287 285 285 285 285 285 283 282 281 280 279 278 276 276 275 273
301 302 301 302 302 301 301 300 298 297 296 294 293 292 292 292 292 292 292 292 291 290 291 290 290 289 288 287 286 285 285 284 283 282 281 280 280 280 280 279 277 276 275
299 300 299 299 299 299 299 298 295 295 295 294 293 293 293 292 292 291 291 290 289 289 289 289 288 288 287 286 286 286 285 284 283 282 282 282 283 283 281 279 279 277 275
299 298 298 297 296 297 297 297 296 294 294 294 292 292 291 291 291 291 291 290 289 288 288 287 287 287 286 285 284 284 284 284 284 284 283 283 282 281 280 280 278 277 275
296 296 295 295 295 294 294 295 295 294 294 293 292 291 291 291 291 291 290 289 288 287 287 286 285 285 285 285 284 284 284 283 283 283 283 282 281 280 280 279 277 275 273
294 292 292 293 292 292 291 289 290 291 291 291 291 291 291 290 289 288 286 286 285 284 284 284 284 284 284 284 284 284 284 284 283 283 282 282 281 280 279 278 276 274 272
293 292 292 292 291 290 289 289 287 287 287 287 288 288 287 287 286 285 284 284 284 284 283 283 284 284 284 284 284 284 284 284 284 283 282 282 281 280 278 277 276 274 272
291 291 292 291 291 290 290 289 288 286 284 284 285 285 285 285 284 284 285 285 284 284 284 284 284 284 284 284 284 284 284 284 284 283 283 282 281 279 277 276 275 274 273
289 289 289 289 290 289 289 288 287 286 285 283 282 283 283 283 283 283 283 283 283 283 282 282 282 281 280 280 280 280 280 280 280 280 280 280 280 279 277 276 275 275 274
285 286 286 286 286 286 285 285 285 284 282 282 281 281 281 282 282 281 281 281 281 280 279 279 278 277 277 276 276 276 276 277 277 277 277 277 277 277 277 276 275 274 273
283 284 284 284 284 284 284 283 282 282 281 280 280 280 280 281 280 279 278 277 276 275 275 274 274 273 274 274 274 274 274 274 274 274 274 274 274 275 275 275 274 274 273
283 282 282 282 281 281 281 281 281 280 279 278 278 276 277 277 275 273 273 273 273 272 273 273 273 273 272 272 272 272 273 272 272 272 272 271 271 272 272 273 273 272 272
281 281 281 280 280 279 280 279 279 278 277 276 275 274 274 273 273 272 272 272 272 273 273 273 272 273 272 272 272 271 271 271 271 270 270 269 269 269 270 270 270 271 271
279 279 279 277 278 277 277 276 276 275 274 273 273 272 272 272 271 271 272 271 272 272 272 272 272 272 272 272 272 272 271 271 271 270 268 268 269 269 269 269 269 269 269
278 277 276 276 276 275 274 273 273 272 272 271 271 270 270 270 271 271 271 272 272 272 272 272 272 272 272 272 272 272 272 271 270 269 269 268 268 268 268 268 268 268 268
275 275 274 274 274 273 272 271 271 271 270 270 270 270 270 271 271 271 272 272 272 272 272 272 272 272 272 272 272 272 271 271 270 268 268 268 268 268 269 268 268 268 268
Wind_Speed
42 40 38 36 35 34 33 33 32 31 28 28 28 27 26 25 24 22 21 19 18 17 15 13 11 10 9 8 7 6 6 7 6 4 8 8 8 8 9 9 9 10 12
36 36 36 34 32 31 31 32 32 31 27 28 28 28 27 26 25 24 23 21 20 18 16 15 13 12 11 10 8 9 9 10 8 7 7 9 10 9 9 10 12 13 13
32 34 33 32 31 31 31 31 32 30 28 27 29 29 28 27 26 24 21 21 20 18 16 15 14 14 13 12 12 11 11 11 10 11 9 10 10 10 10 11 12 14 15
32 31 31 31 31 31 32 33 32 29 28 29 30 29 28 28 26 23 22 20 19 18 16 15 16 16 15 15 15 14 13 14 14 15 14 13 12 12 13 12 14 15 16
27 27 27 28 31 32 32 31 30 28 28 29 30 29 28 28 26 24 23 22 21 18 17 17 18 18 17 16 16 17 17 18 18 17 16 14 12 12 15 11 14 14 17
28 29 28 29 30 31 31 31 30 28 28 28 29 29 29 27 25 24 22 22 19 18 19 20 20 20 18 17 20 21 20 20 20 18 19 18 18 15 15 15 15 14 6
27 25 28 30 30 31 31 31 29 30 29 29 29 28 27 26 24 23 23 21 19 20 21 21 20 19 18 20 22 22 22 20 21 20 21 20 19 17 16 16 17 17 20
29 29 29 30 31 30 30 30 29 29 29 29 28 27 25 24 21 21 20 19 20 21 21 21 19 20 20 21 22 23 22 21 22 20 22 20 20 19 17 17 17 18 20
31 33 33 32 32 31 30 29 29 28 28 27 26 25 25 22 20 18 18 18 19 20 21 21 21 21 20 21 24 26 24 24 20 21 21 20 19 18 16 18 19 16 11
37 36 32 31 32 31 30 29 27 27 26 24 23 23 21 20 19 18 19 18 20 21 23 22 22 22 21 22 26 25 26 26 21 22 22 20 18 17 15 19 17 18 17
32 29 30 31 30 29 28 27 26 25 22 22 21 19 19 18 18 18 18 19 20 21 22 21 21 20 22 24 24 27 26 24 21 21 19 19 20 21 20 20 22 21 21
26 28 29 28 28 26 25 24 23 23 22 21 20 19 19 19 19 18 18 18 18 19 23 21 17 16 17 19 20 23 24 22 22 19 18 17 20 22 22 22 23 24 25
21 24 26 26 26 25 25 24 24 22 22 22 23 23 23 20 18 16 15 15 17 20 20 19 16 14 15 15 16 17 16 18 21 23 23 27 26 24 23 23 24 25 26
23 24 24 26 25 24 24 24 24 25 23 22 23 22 18 15 12 11 11 12 13 14 16 17 15 14 13 14 14 13 14 17 19 25 28 30 30 28 27 26 26 26 27
21 24 26 27 26 24 21 21 20 18 17 18 17 14 12 12 10 10 10 9 8 7 7 8 9 12 15 15 15 15 16 16 17 20 23 25 27 27 27 25 26 26 26
18 21 23 24 24 24 23 18 12 10 9 8 8 9 8 6 8 6 5 5 5 4 5 4 4 6 9 10 12 14 17 19 21 21 21 22 25 26 27 26 25 26 25
19 21 21 22 23 25 23 22 21 12 10 9 8 8 7 6 5 3 3 4 5 5 2 2 5 7 7 10 12 16 18 19 20 21 21 21 23 25 25 26 27 26 26
15 19 22 22 23 23 21 19 21 22 19 15 11 10 9 7 7 6 6 5 3 2 3 5 6 8 12 14 15 17 19 19 20 22 21 20 21 23 23 24 26 26 25
17 17 19 20 21 21 20 19 18 18 18 17 14 12 12 11 10 8 6 8 5 3 0 1 2 5 8 11 11 10 10 11 14 19 21 20 22 23 24 25 25 26 28
17 18 19 20 21 20 19 21 21 20 20 16 14 13 13 11 11 9 7 7 5 2 1 4 7 9 10 10 12 13 14 14 14 15 18 20 21 23 25 25 24 24 23
16 17 18 20 21 19 19 19 19 20 21 19 15 11 9 12 10 8 6 4 3 1 1 3 5 7 9 11 13 14 13 14 15 16 17 19 20 21 22 25 26 25 25
15 16 17 20 20 20 21 19 19 19 17 17 14 11 10 9 10 9 7 4 3 2 3 5 6 7 9 11 13 14 14 15 16 18 20 22 22 22 22 23 24 24 24
12 15 17 17 18 19 20 18 15 14 14 13 11 11 11 11 9 8 6 5 4 3 4 6 6 6 7 9 11 13 15 16 17 18 20 23 25 24 22 22 22 22 21
10 12 13 14 15 15 17 18 17 14 14 13 12 11 10 11 9 9 8 6 6 6 6 6 7 8 9 10 11 12 14 15 17 19 19 22 24 24 24 24 23 24 25
10 11 12 13 14 14 16 16 17 15 14 12 12 11 11 10 10 10 9 9 8 8 7 7 8 10 11 13 14 15 16 16 17 16 17 20 23 24 24 24 24 24 24
10 10 12 13 13 12 13 15 16 15 14 13 12 11 10 11 11 11 10 10 10 8 8 8 11 12 14 15 17 19 20 19 19 19 20 20 21 23 25 26 26 25 25
Wind_Direction
199 199 207 205 208 208 211 215 217 211 204 199 197 192 192 192 191 191 191 185 186 184 184 184 178 184 185 189 188 196 207 212 214 250 257 261 265 277 288 283 287 288 288
198 199 204 206 205 204 208 215 212 206 202 200 197 195 195 194 195 194 192 191 193 190 188 190 190 194 196 199 205 215 221 224 227 243 260 258 260 278 286 285 290 287 283
201 199 197 201 202 205 209 210 204 202 200 198 198 198 196 197 198 199 199 197 197 198 198 200 202 205 206 209 218 223 229 230 235 239 256 264 267 273 278 283 286 280 279
195 195 197 201 206 208 208 202 202 200 198 198 200 200 200 201 202 199 200 200 201 203 206 210 217 219 220 222 225 230 229 230 232 239 251 259 265 262 266 275 281 283 279
190 193 199 205 208 205 199 199 199 200 202 202 199 201 202 204 203 202 204 206 206 205 210 218 225 228 229 233 238 237 232 233 233 237 242 250 255 256 262 277 278 284 280
195 197 203 203 202 199 198 199 198 199 202 202 202 201 201 204 207 207 210 210 211 216 222 224 229 234 238 243 250 247 245 244 240 240 249 248 264 265 270 271 268 271 292
195 195 199 197 195 197 199 197 196 198 200 201 202 202 204 207 208 211 213 214 219 226 231 232 233 239 245 248 251 250 251 250 251 260 260 263 268 270 271 265 259 260 261
198 198 198 196 197 199 198 198 199 201 201 201 202 203 205 208 210 214 217 221 229 234 239 243 245 250 252 253 255 254 254 253 254 254 262 270 274 274 273 271 269 271 270
205 203 201 200 199 199 198 200 202 201 201 204 204 203 205 205 209 213 217 224 232 240 246 247 250 256 259 259 257 256 258 259 262 262 261 263 269 272 272 266 261 260 267
209 209 203 202 204 201 203 202 203 204 205 204 205 208 209 208 212 216 222 228 238 245 249 253 255 259 262 258 256 257 259 266 266 264 263 268 274 270 263 263 265 255 250
215 209 206 206 205 207 206 205 204 202 202 204 208 208 211 213 217 221 226 230 240 249 255 260 266 268 268 261 255 258 260 274 275 271 266 268 268 267 267 261 263 261 255
215 208 207 205 205 206 207 204 202 199 196 197 201 206 212 216 220 227 233 247 250 255 263 270 275 274 264 259 256 253 260 264 270 270 270 270 273 274 279 275 271 267 266
213 208 210 207 205 202 200 197 193 196 197 197 202 209 215 219 225 231 241 244 246 254 263 273 278 278 272 265 253 255 255 254 261 264 266 281 284 291 287 277 274 270 266
208 203 200 199 198 196 198 197 196 196 200 206 211 221 224 224 222 224 227 229 235 244 255 266 271 268 264 264 265 264 267 264 267 270 271 281 282 280 279 279 272 272 267
206 196 190 191 186 181 188 194 200 207 211 213 221 227 224 221 218 210 212 219 219 224 229 243 251 252 257 266 276 285 288 282 271 273 273 277 280 282 283 281 275 269 262
193 188 184 179 177 176 169 157 169 184 182 197 199 212 205 200 175 176 195 195 178 159 154 178 224 249 263 280 288 290 288 287 286 283 278 277 276 279 282 281 275 269 261
187 178 177 177 174 172 171 162 138 130 141 142 146 147 147 168 149 135 117 112 108 138 116 206 244 246 269 276 280 285 288 296 301 292 286 284 282 282 281 276 276 274 266
164 167 167 168 170 169 168 165 160 149 135 115 112 119 130 132 132 135 148 154 142 205 260 279 292 307 302 301 299 300 300 300 298 295 291 290 289 288 276 272 275 269 268
133 136 141 143 145 144 147 147 146 139 128 127 122 112 107 106 107 106 134 143 158 182 205 346 330 322 320 319 318 325 332 331 315 306 302 300 300 292 283 282 276 275 273
111 123 130 128 127 131 135 135 132 128 125 124 115 120 121 125 120 110 113 125 134 131 334 319 310 309 314 315 312 317 322 322 319 317 314 313 310 304 294 289 282 274 270
110 115 120 125 124 124 127 123 131 126 125 120 108 98 136 146 138 138 137 131 131 128 340 313 324 316 311 317 320 323 327 325 320 319 318 315 312 308 301 295 291 283 279
122 122 121 116 121 123 121 121 118 125 126 128 122 111 129 141 136 134 132 131 108 53 334 341 342 328 324 326 321 322 325 325 323 321 318 314 310 307 304 300 296 287 281
117 115 118 121 123 123 114 117 123 127 129 129 134 128 127 124 122 119 113 93 71 50 13 347 332 331 321 315 311 315 315 319 321 318 316 314 313 312 307 302 299 296 290
115 118 123 123 115 113 116 120 121 127 130 130 130 126 127 121 121 109 93 76 62 43 31 359 338 344 336 330 327 322 317 316 314 313 311 309 312 314 314 304 299 296 294
126 124 120 114 118 123 123 124 127 129 128 130 126 125 120 116 109 98 84 69 56 53 39 13 5 2 348 343 340 336 332 327 324 325 323 317 314 314 308 303 300 297 295
110 114 115 118 120 126 129 132 127 126 127 123 120 118 112 106 95 84 75 64 58 44 36 19 11 360 349 346 344 342 341 337 334 332 320 314 311 312 313 310 308 303 299